Theta_e
326 325 325 324 324 324 324 325 326 328 328 325 325 325 324 323 325 327 328 329 328 328 328 327 327 327 327 328 328 327 326 325 324 324 325 324 324 318 316 321 324 326 328 330 328 328 328 327 324 322 322 322 322 323 322 322 320 321 321 320 319 319 318 318 317 316 316 316 316 315 315 315 315 314 314 314 315 314 314 314 314 313 314 314 313
326 326 324 324 323 323 323 324 325 327 326 325 324 324 323 322 324 327 328 328 328 328 327 327 327 328 328 328 328 326 326 324 323 323 324 324 324 321 315 317 321 324 326 329 326 327 328 326 324 322 322 322 321 321 321 321 320 319 319 319 318 318 318 318 317 316 316 315 315 315 315 315 314 314 314 314 314 314 314 313 313 313 313 313 314
327 326 324 324 323 322 322 324 324 326 326 325 326 324 324 322 324 325 326 327 327 328 327 327 327 327 328 328 328 327 325 325 323 324 323 323 324 323 324 315 318 320 324 327 327 326 324 324 324 322 322 322 322 321 321 321 321 319 319 318 318 318 317 317 316 316 316 315 314 314 314 314 313 313 313 313 313 313 313 313 313 313 312 313 313
328 326 325 324 324 323 323 324 324 325 325 325 325 325 324 324 327 328 328 328 328 328 329 327 326 325 327 327 328 326 325 325 324 323 323 323 322 323 323 322 315 316 319 324 329 326 324 324 323 322 322 321 321 322 321 321 321 320 319 318 317 317 317 316 315 315 315 315 314 314 314 313 313 313 313 313 313 313 312 312 312 313 312 312 312
328 327 326 326 327 326 326 325 324 325 325 326 326 326 326 325 325 327 326 327 327 328 330 328 326 325 326 327 327 326 326 325 324 323 322 323 322 322 323 321 322 316 317 318 327 325 323 324 322 321 321 320 321 321 321 321 320 320 319 319 318 317 317 316 315 314 314 314 314 313 313 313 313 313 312 312 312 312 312 312 312 312 312 311 312
329 328 327 327 328 328 328 328 326 326 325 326 324 325 324 325 324 325 323 325 326 327 326 326 325 325 325 326 326 326 325 325 323 323 323 322 321 322 321 321 318 322 325 317 320 325 326 323 322 321 321 321 321 321 321 321 321 320 319 318 317 317 317 317 315 315 314 313 313 313 313 313 312 312 312 312 312 312 311 311 311 312 312 311 311
329 328 327 327 327 326 327 328 329 328 325 325 325 326 326 325 324 323 324 324 325 327 326 326 325 325 326 326 325 326 325 324 324 324 322 320 319 320 321 320 319 319 324 324 316 319 323 322 322 321 320 320 320 321 321 320 320 320 319 318 317 316 316 316 315 314 314 313 312 312 312 312 312 312 312 311 311 311 311 311 310 311 311 311 311
329 328 327 327 326 326 326 328 329 329 327 327 326 325 325 326 326 325 322 323 324 325 326 326 326 325 326 326 325 325 325 324 323 323 323 320 318 318 319 320 319 319 319 323 322 318 318 321 321 320 320 320 320 320 320 320 319 319 319 318 317 316 315 314 314 314 313 312 311 311 311 311 311 311 311 311 311 310 310 310 310 310 311 311 311
329 329 326 327 326 326 326 328 329 328 327 326 325 326 325 326 325 326 325 322 324 324 325 325 325 325 325 326 326 326 325 324 323 323 322 319 317 317 318 319 319 313 319 321 321 319 313 314 317 317 317 317 319 320 320 320 319 319 319 318 317 316 315 313 313 313 312 311 310 310 310 311 311 311 311 310 310 310 310 310 310 309 310 310 310
330 329 327 327 327 326 326 327 328 327 326 326 326 327 327 326 324 326 325 323 322 323 324 325 325 325 324 325 326 325 324 325 324 320 321 320 318 317 317 317 317 318 318 320 320 317 315 311 311 311 311 313 315 318 319 320 319 319 319 318 318 316 315 313 312 312 311 311 310 309 310 310 310 310 310 310 309 309 309 309 310 309 309 309 309
330 329 328 326 325 325 326 327 327 326 326 326 326 326 326 326 325 324 325 325 324 325 325 325 326 325 324 324 325 325 325 324 323 322 321 319 316 314 316 315 316 317 318 318 318 316 314 313 313 314 313 309 313 314 317 318 318 319 319 318 318 317 316 314 312 311 311 311 310 309 309 309 310 310 309 309 309 309 309 309 309 308 309 309 309
329 329 328 327 325 324 325 326 326 326 325 324 324 324 323 323 323 324 324 324 324 325 326 325 324 324 323 323 324 324 322 320 320 321 320 316 314 313 313 314 315 316 316 317 316 314 313 312 310 312 313 311 308 312 312 314 316 318 319 318 318 317 316 315 312 311 311 310 310 309 309 308 309 309 309 309 309 308 309 309 308 308 308 308 308
328 329 327 325 326 326 326 325 326 326 325 324 325 325 324 324 323 324 323 322 322 324 325 325 322 320 322 322 322 322 321 318 317 317 317 317 315 312 312 312 313 313 314 315 314 312 311 310 309 308 307 308 308 306 308 311 312 316 317 317 318 317 316 315 313 311 310 310 309 309 308 308 308 308 308 308 308 308 308 308 308 308 308 308 308
329 329 328 328 327 326 326 325 325 325 324 325 325 322 324 324 323 322 323 322 321 324 323 322 319 317 316 317 319 321 318 317 317 316 316 315 315 312 310 310 311 312 312 311 312 311 310 309 308 305 304 304 303 305 308 309 310 313 315 316 316 317 317 316 314 311 310 310 310 309 308 308 307 308 308 308 308 308 308 308 308 307 308 308 307
330 328 329 328 328 327 326 326 325 324 323 323 324 323 323 322 322 321 320 322 321 324 323 322 318 320 319 317 313 313 314 314 316 316 315 314 314 313 311 309 310 312 311 311 311 310 309 308 306 304 303 302 302 303 305 305 307 308 312 314 316 317 317 316 314 311 309 309 309 309 308 308 307 307 308 308 308 307 307 307 307 307 307 307 307
329 329 327 328 328 327 327 326 325 325 324 323 323 322 322 322 322 322 322 319 318 320 322 322 322 319 312 313 314 312 309 312 314 316 315 312 311 312 312 309 309 311 310 309 310 309 308 307 305 304 303 301 301 301 302 304 306 304 305 308 312 314 315 315 315 312 309 308 310 309 308 307 307 307 307 307 307 307 307 307 307 307 307 307 307
329 329 327 327 328 328 327 327 327 326 325 324 324 323 323 323 322 322 322 320 319 320 319 320 322 324 319 314 311 308 309 312 314 315 311 309 309 310 310 311 309 308 308 308 309 309 307 306 305 304 303 302 301 300 301 302 305 305 306 304 306 311 314 315 314 313 311 309 310 309 308 307 307 306 306 306 306 306 306 307 306 306 306 306 306
329 329 328 326 327 328 328 327 327 327 326 325 324 325 325 323 323 323 323 323 321 321 319 319 321 323 324 321 319 314 314 314 312 310 311 312 311 308 308 309 310 308 307 307 308 308 306 305 304 303 302 301 301 301 300 302 302 303 303 305 306 309 311 313 313 313 311 310 309 309 309 308 307 306 306 306 306 305 305 306 306 306 306 305 306
329 329 329 327 327 328 328 327 327 327 326 326 324 324 325 325 325 324 323 323 323 319 320 319 318 319 322 323 323 323 321 316 311 313 310 309 308 306 305 307 308 308 308 307 308 307 306 305 304 303 302 301 300 300 300 301 302 303 303 305 306 307 308 310 311 311 311 311 310 309 308 308 307 306 306 305 305 305 305 305 306 306 305 305 305
329 329 329 328 327 327 328 328 327 327 326 325 325 325 325 326 326 326 324 323 323 320 320 321 317 317 319 320 322 322 322 321 319 316 312 310 308 306 306 305 305 306 306 307 307 306 306 305 304 302 301 301 300 300 300 301 302 302 303 304 306 307 307 308 308 308 309 310 309 308 307 307 306 306 306 306 305 305 305 305 305 305 305 305 304
329 329 329 329 326 326 327 327 327 327 325 326 326 326 326 325 325 324 323 323 323 323 322 321 321 319 319 318 320 320 320 318 316 313 312 310 310 307 303 302 300 300 302 304 306 306 307 306 304 302 301 300 300 300 300 301 301 302 302 303 306 308 307 307 307 306 305 305 306 306 306 305 305 306 306 306 305 305 305 305 305 305 305 305 305
327 328 328 328 328 326 326 327 327 326 324 326 326 325 325 325 325 325 324 323 323 322 322 322 323 322 321 320 317 317 317 314 311 310 310 310 308 311 311 300 299 302 302 302 304 305 306 306 303 302 301 300 300 299 300 300 300 302 302 303 305 306 307 308 307 305 304 303 302 302 302 303 303 305 306 305 305 305 305 305 305 305 305 304 304
327 327 327 328 327 327 326 326 327 326 324 325 325 325 325 324 324 324 324 323 322 322 322 323 323 323 322 321 319 318 316 313 311 312 312 311 308 306 309 308 308 310 305 304 303 304 305 305 303 302 301 300 300 299 299 300 298 300 301 302 304 305 306 308 308 306 304 303 302 302 301 301 301 303 304 305 305 305 305 305 304 304 304 304 304
327 327 326 327 327 326 326 326 325 326 325 325 326 326 325 325 323 322 322 323 323 322 322 322 322 322 323 322 321 321 320 319 318 317 315 314 313 311 312 313 313 311 311 303 304 304 303 302 302 302 301 300 300 299 298 299 298 296 299 300 302 304 305 307 309 307 305 303 302 302 302 302 301 301 302 303 303 304 304 304 304 304 304 304 303
326 326 326 327 326 326 325 324 325 325 326 326 326 326 326 325 324 324 322 322 321 321 321 322 321 321 321 322 321 321 320 322 321 320 319 318 316 313 314 316 313 312 308 302 301 301 301 300 301 301 301 300 300 298 298 298 297 296 296 298 300 301 302 304 307 307 306 304 302 302 301 301 301 301 301 301 301 302 302 303 303 304 303 303 302
326 326 327 327 326 326 326 326 326 326 326 326 326 326 326 325 324 323 323 322 322 322 321 322 321 322 322 321 321 321 321 322 321 321 320 318 316 315 314 314 311 312 300 296 296 297 299 299 301 301 301 300 299 298 297 297 297 295 294 297 298 299 300 302 304 305 305 304 302 302 301 300 300 300 301 301 301 301 301 301 301 302 302 302 302
327 328 328 327 327 326 326 326 326 326 326 325 325 325 324 324 324 324 323 323 322 321 321 321 320 321 321 321 321 321 321 322 322 322 322 319 317 318 316 311 302 300 300 295 295 296 302 301 300 301 301 300 299 298 297 296 295 294 293 296 298 297 299 300 302 303 305 304 303 302 301 301 300 300 300 301 301 300 300 300 300 301 300 300 300
328 328 328 327 327 326 326 326 326 326 326 325 325 324 324 323 322 322 322 322 321 321 321 321 320 321 321 321 321 320 321 322 322 322 322 322 319 318 316 313 309 304 297 298 294 294 299 301 301 300 300 299 298 297 295 294 295 294 293 296 297 297 297 298 300 301 303 303 302 301 301 301 300 300 300 300 300 298 299 299 299 299 298 298 298
328 328 328 327 327 327 326 325 325 326 326 325 325 324 324 323 321 321 320 321 320 320 321 320 320 321 320 321 320 320 321 322 321 321 321 321 321 319 318 315 314 310 305 297 300 298 301 299 301 301 300 298 295 295 294 293 293 294 295 295 296 297 296 297 298 299 300 301 301 301 300 300 299 299 300 300 299 298 298 298 297 297 297 297 297
327 328 327 327 326 322 325 325 325 325 325 325 324 324 323 322 321 321 321 321 320 320 320 320 320 320 320 320 321 320 321 321 320 321 320 320 319 318 317 318 317 312 311 307 305 302 304 301 302 302 297 296 293 293 293 293 293 293 295 295 295 295 295 296 297 298 298 299 301 301 300 300 299 298 299 299 298 298 298 298 298 297 297 297 297
327 327 327 326 325 325 324 325 325 324 325 325 324 323 322 321 321 320 321 321 320 319 319 319 319 319 319 318 319 319 320 320 320 320 320 320 319 318 317 317 316 314 312 310 305 307 308 303 300 302 296 295 294 293 293 293 293 292 294 294 293 292 292 293 294 296 297 298 299 299 299 300 300 299 298 299 298 298 297 297 297 297 296 296 296
327 327 326 325 325 324 324 324 324 324 324 324 324 323 322 321 320 320 320 320 319 318 318 319 319 319 318 317 317 318 319 319 319 319 319 319 318 317 316 315 314 314 313 311 307 307 302 305 299 298 295 293 294 293 292 293 293 291 292 291 291 289 289 290 292 293 295 297 296 296 297 298 298 297 298 299 298 298 297 297 296 296 296 296 295
327 326 325 325 325 324 324 323 324 323 323 323 322 321 321 320 320 320 319 319 318 317 317 317 318 318 318 317 318 319 320 318 316 316 317 317 317 316 315 313 312 313 311 308 306 305 296 292 297 295 293 293 292 293 292 292 290 290 289 289 289 289 290 290 292 291 292 294 295 295 296 297 296 295 296 296 296 296 296 296 295 294 294 294 293
327 326 325 325 324 324 324 324 324 324 323 323 322 321 320 320 319 320 319 318 317 317 317 316 317 318 317 316 316 317 318 317 317 316 316 315 313 310 310 309 309 308 309 307 305 304 303 290 291 292 292 293 292 293 291 289 288 290 289 289 289 290 290 291 291 291 291 292 293 294 295 295 295 294 294 294 294 294 294 294 293 293 293 293 292
326 326 325 325 325 324 324 324 324 323 323 322 322 321 320 319 318 318 319 318 317 316 316 317 317 317 316 315 316 318 319 318 316 316 314 313 311 309 308 307 307 308 309 308 305 300 301 300 292 291 290 290 291 289 290 290 289 290 289 288 287 288 290 290 290 290 290 291 292 293 294 294 294 293 293 293 293 293 292 292 292 292 292 292 292
325 325 325 325 325 324 323 323 323 322 322 322 321 321 321 319 319 318 317 318 318 318 317 317 317 316 315 314 315 317 316 314 313 312 311 309 307 306 306 304 304 306 307 305 305 304 301 300 289 290 288 288 288 288 289 289 287 287 288 288 288 288 288 288 289 289 289 290 290 291 292 293 293 293 293 293 292 292 292 292 291 291 291 291 291
324 324 323 324 324 323 322 322 322 321 321 322 321 320 320 320 319 319 318 318 318 318 318 318 311 317 317 315 314 315 314 312 310 307 304 302 303 303 303 303 302 303 299 297 296 296 296 296 289 287 287 287 287 286 286 285 286 286 286 287 287 287 287 288 289 289 288 288 289 289 290 291 292 293 292 292 292 292 292 291 291 290 290 290 290
323 323 322 322 322 322 322 322 322 322 322 321 320 319 319 319 319 319 318 318 318 318 318 318 318 317 316 315 314 314 312 310 309 306 303 301 301 301 300 298 298 297 295 295 295 295 295 295 291 286 285 285 285 284 285 286 285 284 285 286 287 287 287 287 288 288 288 287 287 287 288 289 290 291 292 291 291 291 291 291 290 289 289 289 289
322 321 321 321 320 321 321 321 322 322 321 319 319 319 320 319 318 317 317 318 318 317 317 316 316 316 316 315 314 312 309 308 308 306 304 302 300 298 298 298 297 297 298 298 295 294 294 293 289 289 287 286 286 285 285 286 286 286 285 285 285 286 286 286 286 287 287 286 287 287 287 288 288 289 290 290 290 290 290 290 289 289 288 288 288
320 321 320 320 320 319 320 320 321 321 320 319 319 319 319 319 318 318 317 316 316 315 314 315 315 314 314 313 313 311 309 308 308 307 302 299 297 297 298 297 296 295 296 296 294 294 293 292 292 290 287 285 285 286 285 285 285 285 286 286 285 286 285 286 286 286 286 285 285 285 286 286 287 287 288 288 288 288 287 288 288 287 287 287 287
317 319 320 319 318 317 317 318 318 318 318 318 318 318 318 318 319 317 317 315 314 313 312 311 310 310 310 310 309 307 305 299 298 299 298 298 300 299 298 298 296 296 296 295 293 293 293 292 292 289 287 285 285 284 283 283 284 286 287 286 286 287 288 287 286 286 286 285 285 285 285 285 285 285 285 286 287 287 287 286 286 286 286 287 287
314 313 315 315 315 315 315 315 316 316 316 318 308 305 306 316 316 316 315 314 312 312 310 306 304 302 302 303 303 296 295 294 294 295 296 296 296 302 302 298 296 296 294 292 292 291 290 290 291 287 286 286 286 286 285 286 287 287 286 286 285 287 287 286 287 287 286 285 285 284 285 285 284 284 285 284 286 285 286 286 285 286 285 286 286
306 306 308 311 311 313 314 313 313 314 315 314 303 304 304 304 313 314 313 312 311 309 307 304 302 298 297 298 297 293 292 291 292 292 294 294 294 295 295 295 295 298 292 291 290 292 291 291 292 288 289 289 288 287 287 289 287 286 287 286 286 286 286 285 285 287 286 286 284 284 285 286 284 283 284 284 284 284 284 284 285 285 285 285 285
301 300 302 305 307 308 309 310 311 312 313 303 302 302 302 302 302 311 312 311 308 308 304 303 302 299 296 294 293 294 294 295 295 293 292 291 292 292 292 292 292 293 294 294 292 290 290 291 291 290 290 290 290 289 288 287 287 286 286 286 286 286 286 285 286 287 285 284 284 284 284 285 283 283 283 284 284 284 283 284 285 285 285 285 285
298 299 301 301 301 301 304 305 305 305 305 301 301 301 301 301 301 304 310 309 307 304 302 301 300 298 295 294 293 293 294 289 291 293 295 294 290 291 290 290 291 292 293 293 293 295 294 291 291 291 291 291 291 290 290 289 288 286 286 286 286 286 286 286 287 287 281 283 283 283 283 285 282 282 282 283 284 283 282 283 284 284 285 285 286
297 298 298 298 298 299 300 301 301 301 301 298 299 299 299 299 299 301 308 307 304 301 299 299 299 296 295 296 294 293 292 291 292 293 295 295 295 292 292 293 293 290 290 291 290 289 291 294 294 292 293 292 291 292 291 289 287 286 286 285 286 285 285 285 285 283 281 282 283 283 282 285 282 282 282 284 283 281 281 282 283 284 285 286 286
297 297 298 297 297 297 297 298 299 300 301 297 297 298 298 298 299 299 305 302 299 298 297 296 297 295 295 296 296 295 294 293 293 293 294 295 295 293 293 291 293 291 291 292 292 292 291 292 293 292 292 291 292 290 290 290 288 288 287 286 286 286 285 285 283 284 283 281 281 281 281 285 279 281 281 283 282 281 282 281 282 283 285 285 286
296 296 296 297 297 296 296 297 298 299 299 296 296 296 297 298 298 300 300 297 296 295 294 295 295 294 294 294 294 294 293 294 291 290 292 294 293 288 288 288 289 289 289 289 290 291 290 290 290 291 290 290 290 290 289 289 288 287 287 286 286 285 284 283 283 285 283 283 280 281 281 283 282 280 282 282 281 280 282 281 282 283 284 285 285
295 295 296 295 296 297 295 296 297 298 299 295 294 295 296 297 297 297 295 295 294 294 294 293 294 293 293 294 295 296 296 296 290 291 291 291 289 287 287 287 286 287 287 286 286 287 288 288 288 288 288 288 289 290 290 290 288 288 287 285 284 284 283 283 284 284 284 282 280 280 281 280 282 281 280 282 281 280 281 282 280 280 281 283 284
295 296 295 295 293 294 294 294 295 297 296 293 292 294 295 296 296 296 295 293 292 293 292 292 293 293 293 289 291 296 295 295 290 290 291 290 289 287 287 286 285 286 286 285 286 287 288 288 287 287 288 289 289 289 290 290 289 287 286 284 285 284 284 284 284 285 285 282 281 280 280 280 281 280 279 281 280 280 280 280 278 277 278 279 281
296 295 292 294 293 292 292 293 289 295 296 292 291 293 294 295 294 295 293 293 292 291 290 290 291 291 291 288 288 292 293 292 290 291 290 289 289 287 287 286 287 286 287 285 286 285 286 285 286 286 287 287 288 288 288 288 288 286 286 286 286 285 284 284 284 284 283 283 278 280 279 281 280 281 279 279 280 281 276 277 278 277 278 279 279
Wind_Speed
6 6 6 5 5 4 4 5 5 4 4 5 5 5 5 5 5 5 4 4 3 3 2 2 3 2 3 1 3 2 1 1 1 1 2 2 2 4 5 3 7 8 9 9 8 9 9 9 7 6 7 7 7 8 8 8 7 7 7 8 7 7 7 7 7 7 7 7 8 8 8 8 9 10 10 10 12 12 13 13 14 15 16 16 17
5 5 5 5 5 5 5 5 5 5 4 5 5 5 5 5 5 4 4 4 4 3 3 3 3 2 2 2 2 2 2 3 2 1 1 1 1 3 4 4 6 7 10 11 4 10 11 9 6 7 7 7 6 6 7 7 7 7 6 7 6 6 6 6 6 6 6 7 7 7 7 8 9 9 10 10 11 12 13 13 14 15 15 16 16
5 5 4 4 4 4 5 5 5 5 4 5 4 5 5 4 5 5 4 4 4 3 4 3 3 4 2 2 2 3 3 3 2 2 1 0 1 1 2 4 5 6 9 9 4 8 7 7 7 7 7 7 7 6 6 7 7 7 7 6 6 5 5 6 6 5 5 6 5 6 6 7 8 9 9 10 11 11 12 13 14 14 15 15 16
6 5 5 5 5 5 5 5 5 4 4 5 4 4 4 4 3 3 3 3 4 4 4 4 4 3 2 2 3 3 4 3 3 4 2 1 1 1 0 1 4 5 7 8 2 8 8 9 8 7 7 6 7 7 7 7 7 7 6 6 6 5 5 5 5 4 4 5 5 5 6 7 7 8 9 10 11 11 12 13 14 15 14 15 15
6 7 6 5 5 5 5 5 5 4 4 5 5 4 4 4 3 3 4 4 4 5 4 5 5 3 3 2 3 4 3 3 3 3 3 2 2 1 1 1 2 2 3 7 3 8 7 9 8 5 4 4 6 6 6 7 7 7 6 6 5 5 5 5 4 3 3 4 4 5 5 6 7 8 9 10 10 11 11 12 13 14 15 15 15
7 6 6 6 6 6 6 6 5 5 4 4 5 5 5 4 4 4 5 5 6 5 5 5 4 4 4 3 4 4 4 4 4 4 4 3 3 2 2 1 2 3 1 5 4 5 4 7 9 7 5 5 5 5 6 6 7 7 7 6 5 4 5 5 4 4 3 3 4 4 5 6 7 7 8 9 10 10 10 12 12 13 13 14 15
10 8 7 7 7 7 7 6 5 5 5 5 5 4 4 5 5 5 5 6 6 5 5 5 5 5 5 4 5 4 5 5 4 4 4 3 3 3 2 2 2 2 3 3 4 6 8 9 9 7 6 5 5 6 6 7 7 7 7 6 6 5 5 5 4 3 3 3 3 4 4 5 6 7 8 8 9 9 9 11 12 12 12 13 14
11 10 10 10 10 9 7 7 6 5 5 4 4 4 5 5 6 5 6 6 6 6 6 6 5 6 5 5 5 5 5 5 5 5 5 4 4 4 3 2 3 3 2 5 4 5 6 7 8 8 7 6 6 7 7 8 7 8 8 7 7 6 5 5 4 3 3 3 2 3 3 5 5 6 6 7 8 8 9 9 11 11 12 13 13
12 12 11 11 10 10 8 8 6 5 5 5 5 6 6 5 6 6 6 6 6 7 6 6 6 7 6 6 6 5 5 6 6 5 4 5 5 5 5 4 4 3 5 4 4 5 6 7 7 6 4 1 5 7 8 8 8 8 8 9 8 7 7 5 4 3 3 2 1 1 2 3 4 5 5 5 7 7 8 10 10 10 11 12 13
13 12 11 11 10 10 8 9 6 5 5 6 7 7 7 6 7 6 6 7 7 7 7 7 6 6 6 6 6 5 6 6 4 4 5 6 6 6 5 4 5 6 5 5 5 4 5 5 6 5 3 1 2 5 7 8 8 9 9 9 9 8 7 6 5 4 3 3 2 1 2 2 3 4 5 5 6 7 8 9 10 10 10 11 12
13 13 12 11 11 11 10 10 7 6 7 9 9 9 9 9 8 7 6 7 7 7 7 6 6 5 6 8 7 7 6 5 4 5 4 5 5 5 4 5 5 5 5 6 5 5 5 6 5 5 4 1 2 4 6 6 8 10 10 10 10 9 8 7 6 5 4 4 2 1 1 1 2 3 4 5 6 7 7 8 9 10 11 12 12
12 13 12 12 11 11 11 11 10 8 10 11 10 10 11 11 11 9 9 5 4 5 7 7 7 8 8 8 7 5 6 4 5 5 4 5 5 5 6 5 5 5 5 5 5 5 6 6 6 5 5 4 1 2 4 6 6 9 11 11 10 10 9 8 7 6 5 4 3 2 0 1 2 3 4 5 5 6 7 8 8 9 9 10 11
12 13 13 12 12 11 10 9 9 9 10 11 10 10 10 9 8 8 9 10 7 6 6 6 8 8 8 8 8 7 6 5 6 5 6 4 5 6 6 5 6 5 5 5 6 6 6 7 6 6 5 5 5 4 5 5 6 9 10 11 11 11 10 10 9 7 6 5 4 2 2 1 2 2 3 4 5 5 6 8 8 9 10 11 11
13 14 13 13 12 11 9 9 10 9 10 10 11 10 11 11 9 9 9 9 8 8 8 8 9 9 8 7 7 7 5 6 7 8 7 6 5 5 5 7 7 7 6 6 6 8 8 7 7 6 6 5 6 6 6 6 7 10 10 10 11 12 11 11 9 8 7 6 5 4 3 2 2 2 2 3 4 5 6 7 8 9 10 11 12
15 15 13 13 14 11 10 9 10 9 9 11 11 12 11 13 12 10 8 8 7 7 10 11 9 7 8 7 8 8 5 5 8 9 8 7 6 7 6 7 9 7 7 7 8 8 8 8 8 7 7 6 6 6 6 7 6 4 9 10 11 12 12 11 10 9 8 6 6 5 4 3 3 3 2 3 4 5 6 7 8 8 10 10 12
15 15 11 11 12 11 10 9 10 10 10 9 10 11 11 11 11 12 10 8 9 8 10 12 10 8 7 7 7 6 8 6 8 8 9 8 8 8 7 7 8 7 6 9 9 8 8 8 9 8 8 8 7 6 7 7 6 5 5 6 8 12 12 12 11 10 9 8 7 6 5 4 4 3 3 3 4 4 6 7 8 8 9 10 12
15 16 13 13 12 11 11 10 10 11 11 10 10 11 11 10 11 11 12 11 9 8 10 11 12 11 9 5 4 4 8 6 1 5 8 7 8 9 8 10 10 9 8 9 9 8 8 9 8 8 8 8 8 7 7 7 6 7 7 7 7 10 12 12 12 11 9 9 8 7 6 5 5 4 3 3 4 4 6 7 8 8 9 11 12
15 15 15 12 12 12 12 11 11 10 11 10 10 9 11 12 12 11 12 13 10 9 9 10 11 13 13 12 8 6 4 1 3 4 6 5 6 9 9 10 9 9 9 9 10 9 8 8 9 9 8 8 8 7 7 7 6 6 7 8 11 11 11 12 12 11 10 10 9 8 7 6 5 4 4 3 4 4 6 7 7 8 9 10 11
16 16 16 14 13 12 13 12 11 11 10 11 11 12 11 12 11 11 11 11 11 11 11 9 8 10 13 15 13 8 7 6 8 6 8 5 5 6 8 9 10 10 10 11 10 9 8 8 9 9 8 8 8 8 7 6 8 7 9 8 13 12 12 12 12 11 11 10 9 8 7 7 5 4 4 4 5 5 6 7 7 8 9 10 10
15 16 15 15 13 13 12 12 12 11 11 11 12 11 10 9 12 12 11 10 12 12 12 11 10 8 11 14 15 11 8 8 11 10 9 10 6 4 5 7 8 8 9 10 10 10 10 9 9 9 8 9 8 7 7 6 6 7 7 10 12 13 12 12 12 11 10 9 9 8 7 6 5 5 5 5 5 6 7 7 7 8 9 10 10
15 16 15 16 13 13 13 12 12 13 12 11 12 12 13 11 11 11 12 12 11 12 12 11 12 10 9 12 13 14 13 8 4 0 9 7 9 7 6 3 5 7 9 10 9 9 10 9 9 9 9 8 8 8 8 7 7 7 8 12 13 14 13 13 13 12 10 8 7 7 7 6 6 6 6 5 5 6 6 7 8 8 9 10 11
14 14 14 16 12 12 12 13 14 13 13 15 15 15 12 14 14 13 13 13 11 12 13 12 11 11 11 10 10 11 10 5 6 7 8 10 9 8 6 7 6 9 10 10 12 11 10 8 8 8 9 8 8 9 9 8 8 7 8 11 13 13 14 14 13 12 11 9 8 7 6 6 6 7 6 5 6 6 6 7 8 8 9 9 9
10 11 13 13 14 15 13 13 15 14 15 15 15 15 14 15 14 15 13 14 12 13 13 13 11 11 12 11 12 12 12 11 10 12 12 9 9 10 8 8 11 10 9 12 11 11 9 8 9 9 9 9 9 9 9 9 10 8 8 11 11 13 13 13 13 13 12 11 10 9 9 8 8 7 7 6 6 6 7 7 8 9 9 9 9
10 10 11 13 13 14 15 15 15 15 15 14 14 15 13 14 15 15 14 15 15 13 12 13 14 12 13 11 13 13 13 12 10 10 12 11 13 11 10 9 11 11 4 5 7 8 9 9 9 9 9 9 9 9 9 9 9 11 9 11 11 13 13 14 14 14 13 12 11 10 10 10 9 8 7 7 7 7 8 8 8 9 9 9 10
11 11 12 14 13 14 15 15 15 15 15 15 15 16 14 14 14 16 15 16 16 16 13 14 14 14 12 12 13 14 14 12 11 11 11 10 11 12 11 10 12 10 4 3 4 5 7 8 9 9 8 9 8 8 8 8 7 10 11 9 11 12 13 13 14 14 13 13 12 11 11 11 10 10 9 8 8 8 8 9 9 9 9 9 9
12 13 12 13 15 16 14 15 15 15 16 16 16 15 15 14 14 15 16 15 15 17 16 15 16 17 13 11 13 14 14 13 12 12 13 12 12 13 12 7 7 11 2 3 1 2 6 9 9 9 9 9 8 8 8 8 8 12 14 8 11 14 13 13 13 13 14 13 13 13 12 12 11 11 10 9 9 9 9 9 9 9 9 9 9
11 11 11 13 15 14 16 16 16 16 15 15 14 15 14 14 14 15 14 14 15 15 16 17 16 17 17 15 13 14 14 12 12 13 13 13 9 10 12 10 6 6 5 3 3 9 8 5 10 10 10 9 9 8 9 8 9 12 14 8 7 13 12 13 12 13 13 14 14 13 13 13 12 12 11 10 9 9 9 9 10 9 9 9 9
10 10 11 12 13 14 14 16 16 15 15 16 15 14 15 15 14 14 15 11 14 16 16 16 17 18 17 16 15 15 14 14 14 13 13 13 8 9 8 9 10 9 4 6 5 7 8 8 6 10 9 10 8 8 8 8 8 12 14 9 7 8 12 12 13 13 12 13 13 14 14 13 13 13 12 11 10 10 10 10 9 9 9 9 9
10 10 11 12 12 13 14 16 15 16 16 16 16 15 15 14 14 14 14 14 12 16 15 15 15 14 15 16 15 15 15 13 13 13 12 12 9 7 8 10 10 10 6 6 8 8 7 11 8 7 11 7 6 5 7 8 8 10 9 9 8 6 11 14 13 12 12 13 13 14 14 14 14 14 13 12 11 11 11 11 10 9 9 9 9
10 8 10 11 11 12 13 16 15 16 16 16 16 16 15 13 14 14 13 12 13 13 13 13 14 13 13 12 10 10 13 12 13 11 11 11 7 7 10 8 10 11 9 10 7 8 5 8 10 5 7 7 5 6 6 8 10 13 9 9 7 6 8 13 12 12 13 13 14 14 15 16 16 15 14 13 13 13 12 12 11 10 10 10 10
11 10 10 11 12 14 16 16 15 16 16 16 15 14 15 13 13 12 12 13 12 11 12 11 12 10 12 12 12 10 10 11 9 10 9 9 11 9 10 9 9 10 10 8 9 3 5 5 7 6 5 7 7 7 5 6 9 13 9 7 6 6 7 8 12 13 14 14 14 14 15 16 16 16 15 15 14 14 13 13 12 11 11 11 11
11 13 11 14 16 16 15 16 15 15 16 16 16 15 14 13 12 11 11 12 11 12 11 10 9 10 12 12 12 11 10 10 11 11 11 10 10 10 9 9 8 9 9 9 10 7 1 1 2 3 5 7 8 8 8 6 5 14 3 4 5 6 5 6 11 14 14 15 14 14 15 15 16 16 16 16 15 15 14 13 13 13 12 12 11
15 14 14 16 16 16 16 16 16 15 16 15 15 13 12 11 10 10 10 11 12 11 10 11 11 12 12 12 12 13 12 12 10 9 9 10 10 9 9 7 8 8 8 9 9 9 1 2 1 3 4 6 6 8 8 6 6 7 5 5 7 7 7 7 7 13 14 14 15 15 15 15 15 16 16 15 15 15 14 14 13 13 13 12 12
17 16 16 15 14 16 16 16 16 16 16 16 12 10 12 12 12 11 11 12 12 12 10 12 12 11 11 11 12 11 10 10 10 10 10 9 8 8 8 7 7 7 7 7 7 6 8 3 1 2 4 5 4 6 8 8 8 7 8 7 6 7 7 7 7 7 16 16 15 16 15 15 15 15 15 15 15 14 14 14 14 14 13 13 13
15 14 13 16 15 15 16 16 16 16 15 13 11 13 12 12 12 11 12 12 12 12 12 13 13 12 12 13 13 12 10 11 11 10 9 9 8 9 9 7 9 9 9 9 7 6 7 6 4 4 3 4 4 4 6 5 5 6 8 7 6 5 6 7 7 6 11 15 16 16 16 16 16 16 15 15 14 15 15 15 15 14 14 14 13
12 8 15 16 14 13 15 14 14 13 13 12 12 12 13 13 12 13 12 12 12 13 13 12 11 11 11 11 11 11 10 10 10 9 8 7 7 7 8 6 7 9 8 6 8 8 6 6 2 2 3 4 2 3 4 4 5 5 6 5 5 6 6 6 8 7 7 13 15 15 16 16 16 16 16 15 15 15 15 15 15 15 14 14 14
10 11 11 12 12 13 13 14 14 13 13 13 12 12 12 12 12 12 12 12 12 12 13 12 12 12 12 12 11 11 11 11 10 9 7 8 7 7 8 7 7 8 4 4 4 2 3 4 3 1 3 2 1 2 4 5 4 4 3 6 7 7 7 8 7 7 8 10 14 15 15 16 16 17 16 15 15 16 16 16 15 15 15 14 14
13 11 12 12 13 13 14 14 14 13 12 12 12 12 11 11 11 11 11 11 11 12 12 12 12 11 11 11 10 10 10 10 10 8 7 9 8 8 8 6 7 5 4 4 4 5 5 4 7 4 3 5 3 3 5 6 6 6 6 7 6 7 8 9 9 6 5 5 6 7 11 13 16 17 17 16 16 17 16 16 16 15 15 14 14
12 12 13 14 12 13 13 13 13 13 13 11 11 12 12 11 11 11 11 12 11 11 11 11 11 10 10 10 10 10 10 10 9 9 9 9 8 9 9 8 6 6 6 5 5 7 7 7 5 7 6 5 5 4 5 6 6 6 7 7 8 9 9 9 8 6 6 6 8 10 9 7 8 9 12 16 17 17 16 16 16 16 15 15 14
13 14 13 13 12 11 12 12 13 12 11 11 11 12 11 11 11 11 11 11 10 10 10 10 11 11 10 10 10 9 10 10 10 9 8 8 6 7 6 6 5 6 6 6 6 7 7 8 9 8 4 4 5 3 5 6 5 6 8 8 8 8 9 8 9 6 4 5 5 5 8 10 11 13 14 15 17 17 17 16 18 17 16 15 15
10 12 11 11 10 11 11 11 11 11 11 12 11 11 11 12 11 11 11 11 10 10 9 9 9 9 8 8 8 7 9 11 14 12 11 10 9 9 7 7 7 7 6 6 6 6 7 8 7 4 4 5 6 6 6 7 10 10 7 8 7 5 5 5 6 6 5 4 4 5 5 5 6 6 6 8 9 13 15 18 15 17 17 16 15
10 9 9 9 9 10 11 11 11 11 11 10 12 16 13 10 10 9 9 10 10 10 10 9 8 7 7 6 7 11 13 14 13 13 14 13 12 9 8 9 9 8 7 7 6 6 5 7 8 6 5 5 8 9 9 8 7 2 4 7 8 6 3 4 5 5 6 5 5 6 6 4 5 5 5 7 7 7 7 8 9 10 12 15 16
9 8 8 9 10 10 10 10 11 10 10 9 14 14 16 17 13 10 10 9 9 9 9 8 9 7 6 6 5 7 9 8 9 12 12 12 12 9 8 12 11 11 8 8 7 8 7 8 5 5 7 8 8 6 8 7 5 6 4 5 5 4 6 6 7 1 5 6 6 5 5 3 5 6 6 7 6 5 7 9 11 13 14 13 14
8 5 7 10 9 8 8 9 10 10 10 11 13 13 15 16 15 10 8 8 8 8 8 8 7 7 7 6 5 5 6 7 7 7 8 10 11 10 10 12 12 12 11 11 8 7 7 6 6 8 8 9 7 8 6 5 5 5 5 4 5 6 5 6 6 5 2 3 3 3 5 2 3 4 6 6 5 5 7 9 12 13 14 15 15
4 8 9 7 8 7 8 9 9 8 7 9 13 14 15 15 16 13 8 8 8 7 7 8 8 7 7 7 6 5 5 8 6 6 6 7 8 11 10 11 11 13 11 11 10 10 9 6 7 6 9 7 7 6 7 7 3 4 4 5 5 5 5 5 7 3 1 2 2 2 3 2 3 4 6 5 4 4 4 9 13 13 15 16 16
8 8 7 9 7 8 8 8 8 7 8 9 13 14 15 15 15 13 8 8 8 8 8 8 8 8 9 9 9 8 6 7 6 7 7 7 8 6 6 5 6 9 10 11 9 5 4 6 7 7 6 5 5 3 5 5 5 5 6 6 5 5 6 6 1 2 2 2 2 1 3 4 3 3 6 3 2 2 3 5 9 13 15 15 15
9 10 9 9 9 9 9 8 8 9 9 12 14 15 15 16 15 13 7 7 7 7 6 6 8 8 8 9 9 10 9 8 8 10 9 9 8 6 7 5 7 5 5 6 6 6 5 5 5 4 2 3 4 2 5 6 6 4 4 2 3 3 1 1 1 1 1 3 1 1 5 0 2 2 4 2 0 2 2 5 9 11 12 13 13
8 7 8 8 10 10 9 9 9 10 9 13 14 16 16 16 16 10 7 7 7 7 7 7 7 7 7 8 7 8 9 9 9 12 9 8 7 7 6 5 4 4 4 3 2 3 4 4 4 3 2 2 2 3 5 5 4 3 4 3 3 2 2 3 4 3 3 3 4 4 3 3 2 1 3 0 0 3 3 3 6 9 10 11 12
10 10 10 9 8 8 9 9 10 10 9 11 14 14 15 14 11 7 7 6 7 7 8 7 8 8 8 8 7 7 9 9 11 14 11 10 6 8 7 7 5 3 4 2 1 2 2 2 4 4 4 4 5 6 8 9 6 6 4 4 4 4 3 4 4 3 4 4 3 5 2 5 1 0 3 3 2 3 4 2 0 3 7 9 11
11 12 9 8 7 9 10 11 10 10 9 9 12 12 13 15 12 9 7 6 6 8 8 6 5 5 6 10 8 8 9 9 14 14 13 10 6 7 7 8 8 7 5 2 2 2 5 4 4 4 5 5 5 7 8 9 10 8 6 5 4 5 4 4 4 3 1 2 3 6 2 3 0 1 3 3 3 2 1 1 2 2 3 6 9
9 6 6 8 6 6 6 9 9 10 8 9 12 12 14 16 12 8 7 6 8 6 6 6 5 5 5 6 9 9 8 9 14 14 14 10 6 7 8 9 9 8 6 6 5 5 4 4 3 3 3 4 4 4 5 8 10 9 4 1 4 4 4 3 3 3 4 1 3 5 2 1 1 0 0 4 3 1 1 0 0 1 1 1 1
Wind_Direction
208 215 214 218 219 220 223 230 229 229 215 214 211 205 206 203 203 207 207 214 220 234 253 271 278 287 292 277 204 209 188 159 114 32 1 12 14 86 28 8 354 348 334 343 166 156 152 148 138 137 134 131 128 125 119 113 105 102 102 106 102 96 93 88 79 72 62 53 47 40 36 33 32 31 25 25 22 23 16 21 11 14 14 12 10
202 201 199 207 207 216 224 228 225 223 213 214 206 214 212 206 209 208 211 217 235 246 261 265 275 291 287 252 218 231 183 176 168 220 342 334 0 101 111 16 6 344 344 335 209 166 152 162 151 148 160 142 135 132 124 124 119 114 113 110 103 101 98 92 85 74 67 58 46 39 33 32 31 28 24 22 20 23 12 18 11 13 12 12 10
207 194 195 200 196 201 213 215 223 220 212 218 200 216 220 221 212 215 215 223 232 240 254 269 272 286 268 227 194 205 194 195 192 180 265 296 323 348 121 103 21 358 342 330 222 164 188 164 160 162 167 155 150 140 139 133 134 126 126 120 115 110 106 97 86 76 70 65 51 38 34 31 31 23 24 22 17 21 13 12 10 14 9 11 9
202 194 203 202 205 205 212 210 221 218 213 219 210 214 225 222 212 237 246 237 240 245 248 261 267 277 289 227 195 205 201 190 191 200 268 315 261 272 305 139 123 17 350 329 262 173 197 180 173 184 161 170 150 158 151 149 142 141 137 132 125 121 111 103 90 78 71 69 57 46 30 31 27 21 23 18 18 19 14 7 12 9 8 11 7
206 205 200 216 213 211 219 216 224 220 215 216 215 212 218 218 208 202 223 230 235 245 241 252 259 264 268 239 229 208 202 196 186 204 218 233 235 228 270 210 222 157 26 349 288 179 196 172 185 152 155 147 161 165 164 159 157 152 148 140 135 130 126 115 111 99 86 72 59 49 30 31 23 24 20 16 17 18 12 2 14 8 3 9 7
220 203 208 224 226 227 229 224 221 219 219 209 215 217 222 217 218 208 216 225 227 235 241 240 245 259 259 223 234 224 195 209 195 203 209 223 218 213 200 219 220 227 109 47 28 143 165 164 136 142 149 154 167 172 174 170 168 160 155 147 140 133 127 131 133 130 102 74 61 44 28 30 26 22 20 16 13 16 9 4 10 9 8 2 4
229 221 214 226 232 230 229 230 221 211 220 218 225 220 226 225 222 226 221 222 231 234 237 246 249 249 250 240 245 215 190 198 178 189 212 209 222 212 202 195 217 205 206 180 91 106 128 140 144 144 150 156 178 187 185 185 178 168 166 163 155 150 146 148 146 133 112 91 65 45 32 25 26 17 21 15 10 11 9 3 4 10 4 4 0
229 228 232 230 233 234 231 228 212 213 220 216 213 230 226 231 232 232 235 228 228 229 229 241 249 255 254 248 247 229 228 217 193 199 201 204 206 208 210 191 198 194 203 208 179 67 92 122 138 145 152 170 191 200 196 193 188 179 176 176 171 164 160 160 158 144 127 102 69 56 36 28 21 16 19 13 8 8 1 359 5 9 0 3 1
225 225 230 231 231 235 234 228 209 213 214 215 215 229 230 228 235 224 238 247 229 234 234 237 245 252 251 249 245 226 228 219 233 222 172 202 202 201 207 183 163 162 201 204 172 137 66 76 88 90 77 117 200 206 207 201 193 191 187 186 184 178 170 170 169 160 142 136 113 71 47 33 16 14 14 9 6 2 359 354 2 7 360 2 358
223 223 227 231 233 233 234 231 207 201 217 220 227 228 232 233 237 225 224 234 242 236 234 237 243 249 250 245 235 218 225 220 217 200 198 197 201 200 199 184 181 189 191 193 179 158 142 98 98 98 92 71 209 229 216 209 204 201 195 195 191 187 181 176 177 174 175 165 155 87 48 27 18 8 3 3 6 358 357 351 354 1 358 357 356
221 221 223 228 232 234 233 230 215 209 221 228 232 232 237 238 239 238 222 230 244 239 241 245 233 231 242 244 236 226 213 197 199 203 204 200 192 187 188 190 185 196 190 185 186 170 167 174 181 187 169 123 218 226 232 228 223 210 205 203 199 193 188 182 181 189 186 181 179 151 11 12 8 0 353 0 1 356 352 346 357 354 353 353 351
218 218 221 227 231 231 230 231 228 218 224 230 231 231 233 236 239 238 232 215 225 242 237 237 243 249 249 249 240 228 221 204 204 208 203 192 194 193 197 191 189 188 195 191 184 179 183 192 197 200 189 171 225 282 264 243 247 232 215 209 205 200 195 188 187 191 195 200 183 189 204 324 337 350 346 354 355 353 346 341 350 345 353 349 346
217 216 219 222 231 233 223 221 220 220 223 230 231 234 233 232 231 227 227 230 216 213 219 235 244 247 245 250 248 226 218 208 216 217 215 207 201 193 194 186 191 186 189 199 190 188 195 199 204 205 200 185 192 211 258 275 276 245 225 218 211 206 202 196 194 194 200 200 202 195 197 271 291 336 333 347 347 346 340 338 342 346 345 345 345
220 219 217 223 227 225 214 215 213 222 229 233 234 231 229 230 234 236 228 228 232 206 217 215 232 241 250 247 236 228 206 219 223 222 214 203 204 204 192 192 191 187 184 195 198 196 199 203 206 204 201 195 202 200 208 223 232 241 226 224 219 212 207 202 198 196 200 202 206 194 217 233 261 295 318 330 334 339 335 335 341 339 340 344 340
221 219 222 223 225 214 212 210 212 216 223 226 228 228 229 231 228 228 220 220 238 223 215 208 232 222 243 271 261 256 193 217 222 228 212 204 193 202 202 208 206 196 190 198 203 201 204 205 204 203 199 200 202 203 208 212 213 215 235 221 222 218 212 207 203 197 201 210 205 211 214 224 249 273 296 313 327 331 330 328 330 334 338 339 338
224 220 207 209 211 213 211 209 208 205 217 221 219 219 221 222 222 223 225 220 218 221 215 218 225 223 228 219 254 261 279 226 209 213 208 197 196 202 193 208 207 201 199 208 207 204 204 204 204 202 199 200 202 201 206 210 191 215 263 262 246 224 218 211 207 202 201 206 212 211 215 231 243 263 284 303 316 324 322 322 326 331 335 334 335
223 224 210 208 209 210 212 210 207 205 210 222 224 218 212 215 215 216 212 220 221 215 209 218 224 223 233 220 213 230 230 261 333 234 167 195 210 203 200 204 208 201 207 215 213 209 204 202 204 205 202 201 201 202 204 204 190 205 213 230 248 236 220 215 211 207 203 208 214 212 216 230 235 255 275 290 304 313 314 315 323 329 331 330 335
221 224 220 204 206 207 209 212 210 208 207 216 223 219 212 212 212 211 213 215 228 222 217 212 224 224 230 241 241 273 291 130 170 270 157 213 194 206 206 211 210 205 211 216 212 209 206 206 204 205 201 202 202 205 208 201 195 196 206 202 216 223 221 217 215 211 208 208 215 216 218 227 233 247 267 279 286 297 301 309 316 322 325 327 332
223 224 223 212 204 206 208 211 213 211 209 212 218 220 217 215 211 211 215 213 215 233 227 214 209 230 229 237 245 251 256 247 241 268 266 182 206 207 215 213 213 214 216 220 215 208 210 210 207 207 203 202 204 204 208 206 201 211 210 204 202 213 219 218 218 215 212 213 215 219 222 228 236 246 256 270 285 289 296 303 312 319 321 326 329
221 222 220 219 204 207 208 210 213 212 209 211 217 216 217 211 208 211 214 216 213 223 228 222 202 217 217 230 236 244 241 243 248 262 264 275 242 200 236 222 219 223 226 227 219 212 215 208 210 206 208 206 204 203 204 204 198 205 209 211 204 210 213 216 217 217 219 219 220 222 226 232 243 252 259 269 279 291 296 303 310 313 314 318 321
219 221 215 221 205 205 208 211 213 219 218 219 217 215 215 211 205 207 210 215 216 220 229 226 217 222 208 225 231 235 236 223 242 92 245 247 252 226 203 202 241 241 233 229 226 221 217 211 207 206 209 206 201 202 203 203 201 203 208 204 211 210 214 216 215 213 219 224 231 232 235 242 248 255 263 273 281 290 296 303 305 307 309 314 320
213 214 213 218 207 206 210 212 219 219 226 228 228 225 217 229 226 212 211 215 217 218 223 228 226 220 221 225 221 228 232 219 209 228 242 236 250 245 203 187 218 229 215 219 222 222 215 210 202 206 210 209 201 203 204 203 203 199 202 201 211 215 217 218 214 213 214 218 221 232 245 251 255 259 266 269 278 287 293 295 298 299 301 307 312
205 206 207 207 216 222 215 220 225 226 227 230 229 229 226 231 230 229 218 210 215 216 219 227 231 226 219 224 230 222 216 209 203 216 223 224 230 248 243 221 229 241 207 206 210 215 211 209 212 211 210 209 205 201 202 205 201 201 186 193 213 216 222 224 220 215 213 215 214 220 228 236 247 258 263 268 273 278 283 287 289 294 299 304 310
208 205 204 206 215 223 221 223 224 225 226 226 229 229 227 228 233 232 229 223 224 220 219 220 223 233 225 221 233 234 232 229 213 203 213 225 233 237 233 231 238 240 226 177 205 213 207 207 214 215 209 209 209 201 201 205 206 185 186 195 209 214 221 228 225 219 216 216 220 222 228 235 243 247 250 258 265 270 274 280 284 289 297 302 309
210 206 206 201 210 220 218 218 221 221 224 224 226 227 226 228 229 230 228 225 224 225 222 222 220 224 223 221 231 236 236 235 231 225 227 221 222 239 241 235 249 241 189 167 210 216 218 213 212 217 213 211 209 196 197 199 204 173 193 191 206 215 221 227 230 223 218 217 221 223 228 237 244 245 243 246 253 260 267 275 282 288 292 301 308
210 211 210 205 216 219 214 215 218 221 221 225 226 224 224 225 226 226 225 226 226 226 229 229 229 230 231 228 228 234 236 233 230 230 233 230 233 237 244 236 230 244 120 188 154 226 233 218 217 216 212 210 207 196 197 198 205 171 187 195 200 215 219 224 229 231 223 221 223 228 229 234 242 246 245 246 250 258 265 272 280 285 292 298 304
213 212 200 200 206 211 219 223 221 221 221 221 223 222 220 222 226 228 228 227 227 226 228 228 229 229 228 230 234 233 236 232 229 232 233 228 220 232 241 239 237 232 228 190 213 216 235 200 207 211 211 205 205 199 195 192 195 165 184 201 203 205 218 220 226 231 228 224 227 230 233 236 240 245 246 248 251 257 265 268 273 281 289 296 301
212 201 192 193 200 207 216 221 221 221 221 220 218 218 217 218 224 227 228 222 224 224 227 228 230 230 229 229 233 237 235 234 233 234 234 234 224 230 229 231 241 250 197 223 210 252 221 228 190 208 207 204 202 199 185 183 199 166 183 201 206 198 206 217 222 229 228 228 230 234 235 238 242 247 248 246 247 254 261 269 275 281 284 284 287
216 198 195 197 204 206 216 225 224 223 222 219 219 219 218 218 221 222 223 221 220 225 226 225 228 227 230 227 229 235 236 233 233 234 236 235 227 217 220 227 225 243 226 214 222 232 220 200 227 204 198 191 180 171 175 195 184 170 191 201 202 200 194 207 217 222 228 229 231 233 236 239 244 249 249 246 247 251 255 260 263 265 269 275 278
208 196 198 201 204 206 219 225 223 222 221 220 220 220 218 220 220 220 219 215 217 220 222 223 225 224 226 226 224 229 232 231 231 229 230 228 221 220 226 225 227 236 237 247 242 192 214 191 212 200 176 186 163 163 181 193 181 180 194 197 194 193 178 198 211 220 224 229 232 233 236 240 244 246 246 245 247 251 254 256 260 262 264 268 273
209 207 202 207 216 221 220 222 222 221 221 220 219 218 216 217 219 221 219 218 217 217 219 215 221 218 218 223 224 228 224 226 226 226 226 226 229 223 228 227 226 228 239 240 261 183 201 198 203 208 153 184 179 175 174 192 181 184 194 189 184 177 170 200 212 221 225 227 230 235 239 242 241 243 245 244 245 248 251 253 255 258 261 263 268
221 218 210 223 221 218 217 218 219 219 220 220 218 215 211 215 219 218 218 213 214 218 219 212 217 218 220 221 220 224 222 225 226 224 225 224 223 225 224 225 223 225 228 238 246 246 121 324 91 143 132 161 172 175 179 186 161 181 171 167 163 159 188 214 215 223 227 227 229 234 239 241 243 248 247 246 246 249 252 253 253 257 260 260 263
228 224 219 220 218 218 216 215 216 215 216 217 214 208 206 211 214 219 217 214 217 219 216 217 214 217 219 222 222 224 222 222 223 222 224 224 222 225 225 219 223 222 222 231 237 245 219 357 62 152 146 142 170 185 181 168 157 184 188 182 180 193 200 214 215 215 223 227 229 233 236 238 242 248 250 249 250 252 255 256 256 257 259 260 262
230 226 220 217 217 217 217 217 216 216 217 216 205 199 212 213 214 212 217 216 218 220 217 221 216 216 218 222 226 225 218 223 221 222 221 221 220 219 217 212 216 220 214 221 239 241 238 117 202 128 151 187 183 179 189 170 181 177 189 192 193 197 204 210 219 214 211 223 227 233 236 238 242 246 247 248 250 252 253 254 255 256 256 257 259
225 223 217 219 216 216 217 217 217 216 212 208 206 205 207 210 212 214 214 214 216 217 218 220 218 214 216 219 221 221 221 223 223 224 218 220 214 214 218 208 216 221 217 212 209 224 234 224 136 146 165 182 201 173 183 170 161 177 183 192 197 204 215 215 219 230 205 216 226 232 236 239 243 246 246 245 247 249 252 252 254 255 258 260 262
222 207 224 224 219 214 215 214 213 212 213 211 209 206 208 208 212 215 215 216 216 218 221 220 218 215 218 220 220 218 220 224 225 221 216 213 210 210 216 210 211 223 224 205 210 217 219 210 126 147 157 152 180 111 153 128 137 164 190 190 192 213 220 223 229 231 211 213 225 231 236 239 243 245 246 246 247 249 250 251 253 255 257 260 263
215 218 218 219 216 215 215 217 218 214 213 213 210 209 210 209 211 214 215 216 218 220 220 220 219 218 218 219 219 218 217 219 223 220 205 203 205 204 212 210 205 219 212 188 211 202 197 206 124 54 112 111 96 140 152 150 154 170 192 214 209 218 225 229 231 234 236 215 225 232 237 241 244 245 246 248 249 250 251 250 253 256 258 260 263
217 214 212 215 216 216 216 218 217 215 213 211 210 210 211 211 212 214 216 218 220 220 221 221 220 218 219 217 216 217 218 216 221 213 203 207 203 205 211 206 202 188 192 190 182 184 192 202 153 141 174 169 176 184 178 171 163 180 205 220 226 222 226 233 230 222 212 210 214 229 239 244 247 248 247 249 250 251 251 251 253 255 257 259 261
216 214 215 215 215 216 216 217 218 215 215 210 210 211 213 212 213 216 219 220 219 220 220 219 219 219 218 218 216 214 209 207 211 208 206 206 200 208 205 203 192 181 189 196 188 181 191 184 176 178 169 187 175 166 169 181 191 198 200 203 225 220 223 229 235 215 198 214 227 232 237 238 242 243 244 245 249 251 253 254 254 253 254 257 259
217 219 216 216 217 214 217 216 217 214 213 211 211 214 214 214 214 216 218 221 221 221 220 219 218 218 215 212 213 207 204 206 208 209 189 196 189 206 204 188 172 174 182 180 184 191 195 196 199 194 167 142 161 115 122 163 192 223 217 210 218 212 215 219 226 225 197 199 228 228 229 239 249 251 251 251 250 250 252 255 254 253 252 254 256
222 225 223 220 218 217 218 218 216 213 214 215 213 212 214 214 215 217 218 218 217 218 219 219 217 215 211 208 206 201 201 204 204 196 191 189 181 198 197 178 174 176 183 180 193 187 204 202 205 172 154 164 180 159 167 182 199 210 197 199 227 228 223 220 227 214 217 206 220 230 233 212 226 233 232 238 240 236 242 241 250 249 246 247 248
227 225 227 223 220 219 218 219 218 216 217 218 214 211 209 213 214 216 216 217 214 215 216 215 217 213 208 203 205 200 199 202 200 197 196 193 191 196 181 179 180 183 186 185 193 193 187 197 209 174 178 198 191 189 192 204 202 187 171 184 214 222 226 249 256 211 189 203 224 234 234 202 209 238 233 240 242 216 234 229 230 232 235 237 243
225 223 221 223 223 222 220 218 218 221 221 219 213 209 210 211 213 213 212 213 211 211 209 205 210 205 206 202 200 198 198 198 200 199 194 189 190 195 174 182 185 183 182 185 195 192 196 208 200 191 206 207 201 183 203 198 188 191 192 188 210 207 216 225 251 202 161 183 201 233 255 177 174 230 237 239 233 223 224 235 236 232 232 235 241
223 219 223 225 227 224 225 224 223 221 223 215 210 212 212 214 211 210 209 212 207 207 203 204 205 196 194 189 188 180 184 185 178 186 187 188 187 186 177 184 192 198 189 183 181 191 197 199 201 209 202 214 201 180 197 186 187 186 199 195 196 203 212 222 236 246 93 190 190 216 255 141 173 229 248 243 230 225 229 237 237 234 238 242 243
203 214 224 223 227 225 223 225 228 226 230 216 211 212 214 212 209 208 209 204 200 205 201 202 196 190 182 178 174 180 175 167 167 169 173 184 186 184 181 189 198 200 201 202 195 194 193 205 206 209 208 202 208 200 183 182 164 167 169 202 207 209 221 232 242 249 117 203 159 219 257 222 160 224 250 248 226 230 241 238 241 244 246 246 245
210 219 221 222 222 220 218 222 226 224 224 218 213 215 215 212 209 204 208 198 197 196 199 197 191 184 181 179 171 163 165 172 174 168 175 178 177 167 176 185 197 208 211 212 214 218 215 207 210 219 208 198 217 217 146 145 153 180 178 209 195 200 208 227 28 50 100 185 191 217 261 234 175 219 249 264 173 235 251 256 247 247 247 246 247
205 210 210 214 216 214 214 213 217 220 220 212 212 212 211 207 205 200 198 190 187 191 190 190 186 183 183 186 181 178 175 181 186 173 172 181 169 168 184 192 202 192 187 194 200 198 199 211 223 232 226 171 220 104 128 164 184 195 195 197 186 201 195 37 282 184 174 178 205 183 260 210 99 231 257 260 239 261 249 250 247 252 251 250 252
209 204 212 206 207 208 208 206 212 223 219 210 212 212 207 203 195 191 178 176 179 174 173 181 182 180 175 180 179 171 177 186 182 178 180 167 160 158 169 187 196 190 202 189 206 208 201 208 221 234 265 105 137 163 148 166 175 163 123 101 104 134 174 223 242 210 225 150 166 204 253 272 116 256 284 335 224 268 252 240 239 246 252 256 259
202 203 207 204 206 207 209 210 212 221 219 212 209 208 204 192 177 172 167 168 174 175 176 177 181 175 174 177 178 172 179 191 174 177 171 155 155 164 171 180 184 186 208 144 108 120 92 72 63 72 90 130 161 151 155 168 170 153 154 161 184 171 180 221 238 221 235 138 175 195 254 280 272 270 293 277 257 265 268 264 356 329 292 278 272
206 206 193 196 200 202 202 208 207 208 219 208 201 201 190 178 171 169 171 169 175 170 156 169 174 174 176 177 174 176 183 183 169 167 164 162 163 170 171 172 179 200 206 137 136 137 122 107 120 133 153 161 166 169 167 161 143 153 168 196 160 161 203 216 244 248 185 140 154 162 201 248 307 253 287 276 234 239 258 355 357 306 282 271 269
216 198 192 196 201 205 208 205 203 207 208 204 195 194 185 175 172 170 168 168 168 179 167 161 164 164 167 182 188 181 183 163 165 167 161 160 166 180 183 175 186 198 195 146 154 138 142 139 150 141 141 147 164 170 167 154 157 176 194 183 136 183 206 221 237 259 280 193 106 176 207 272 15 2 49 322 301 116 100 331 306 337 314 299 293